Weather History for Boerne Stage Field, TX

Change the Weather History Date:

Friday, April 5, 2013

  Actual Average (KSAT) Record (KSAT)
Temperature  
Mean Temperature 52 °F 67 °F  
Max Temperature 71 °F 78 °F 93 °F (1936)
Min Temperature 33 °F 55 °F 34 °F (1945)
Degree Days  
Heating Degree Days 13 2  
Month to date heating degree days 12  
Since 1 July heating degree days 1467  
Cooling Degree Days 0 4  
Month to date cooling degree days 19  
Year to date cooling degree days 110  
Growing Degree Days 2 (Base 50)    
Moisture  
Dew Point 41 °F    
Average Humidity 68    
Maximum Humidity 100    
Minimum Humidity 35    
Precipitation  
Precipitation 0.00 in 0.06 in 2.47 in (1991)
Month to date precipitation 0.29  
Year to date precipitation 6.15  
Snow  
Snow 0.00 in - - ()
Month to date snowfall  
Since 1 July snowfall  
Snow Depth -    
Sea Level Pressure  
Sea Level Pressure 30.18 in    
Wind  
Wind Speed 2 mph (SSE)    
Max Wind Speed 9 mph    
Max Gust Speed -    
Visibility 10 miles    
Events      
T = Trace of Precipitation, MM = Missing Value Source: NWS Daily Summary

Daily Weather History Graph

Daily Weather History Graph

Search for Another Location

Airport:

Trip Planner

Search our weather history database for the weather conditions in past years. The results will help you decide how hot, cold, wet, or windy it might be!

Date:

Astronomy

Apr. 05, 2013 Rise Set
Actual Time 7:19 AM CDT 7:55 PM CDT
Civil Twilight 6:55 AM CDT 8:20 PM CDT
Nautical Twilight 6:26 AM CDT 8:48 PM CDT
Astronomical Twilight 5:58 AM CDT 9:17 PM CDT
Moon 4:06 AM CDT (4/5) 3:40 PM CDT (4/5)
Length of Visible Light 13h 24m
Length of Day
12h 36m
Waning Crescent, 23% of the Moon is Illuminated
Apr 5
Waning Crescent
Apr 10
New
Apr 18
First Quarter
Apr 25
Full
May 2
Last Quarter

Hourly Weather History & Observations

Time (CDT) Temp. Windchill Dew Point Humidity Pressure Visibility Wind Dir Wind Speed Gust Speed Precip Events Conditions
12:15 AM 44.6 °F 43.1 °F 41.0 °F 87% 30.20 in 10.0 mi North 3.5 mph - N/A   Clear
12:35 AM 44.6 °F 42.2 °F 41.0 °F 87% 30.20 in 10.0 mi North 4.6 mph - N/A   Clear
12:55 AM 44.6 °F - 41.0 °F 87% 30.20 in 10.0 mi Calm Calm - N/A   Clear
1:15 AM 44.6 °F - 41.0 °F 87% 30.21 in 10.0 mi Calm Calm - N/A   Clear
1:35 AM 42.8 °F - 41.0 °F 93% 30.22 in 10.0 mi Calm Calm - N/A   Clear
1:55 AM 42.8 °F - 39.2 °F 87% 30.22 in 10.0 mi Calm Calm - N/A   Clear
2:15 AM 41.0 °F - 37.4 °F 87% 30.22 in 10.0 mi Calm Calm - N/A   Clear
2:35 AM 41.0 °F - 37.4 °F 87% 30.21 in 10.0 mi Calm Calm - N/A   Clear
2:55 AM 39.2 °F - 37.4 °F 93% 30.22 in 10.0 mi Calm Calm - N/A   Clear
3:15 AM 39.2 °F - 37.4 °F 93% 30.22 in 10.0 mi Calm Calm - N/A   Clear
3:35 AM 39.2 °F - 37.4 °F 93% 30.22 in 10.0 mi Calm Calm - N/A   Clear
3:55 AM 39.2 °F - 37.4 °F 93% 30.22 in 10.0 mi Calm Calm - N/A   Clear
4:15 AM 37.4 °F - 35.6 °F 93% 30.22 in 10.0 mi Calm Calm - N/A   Clear
4:35 AM 37.4 °F - 37.4 °F 100% 30.21 in 10.0 mi Calm Calm - N/A   Clear
4:55 AM 37.4 °F - 35.6 °F 93% 30.20 in 10.0 mi Calm Calm - N/A   Clear
5:15 AM 35.6 °F - 35.6 °F 100% 30.21 in 10.0 mi Calm Calm - N/A   Clear
5:35 AM 37.4 °F - 35.6 °F 93% 30.22 in 10.0 mi Calm Calm - N/A   Clear
5:55 AM 35.6 °F - 33.8 °F 93% 30.22 in 10.0 mi Calm Calm - N/A   Clear
6:15 AM 35.6 °F - 33.8 °F 93% 30.22 in 10.0 mi Calm Calm - N/A   Clear
6:35 AM 33.8 °F 30.8 °F 33.8 °F 100% 30.22 in 10.0 mi NW 3.5 mph - N/A   Clear
6:55 AM 35.6 °F - 33.8 °F 93% 30.23 in 10.0 mi Calm Calm - N/A   Clear
7:15 AM 35.6 °F - 33.8 °F 93% 30.24 in 10.0 mi Calm Calm - N/A   Clear
7:35 AM 37.4 °F - 35.6 °F 93% 30.25 in 10.0 mi Calm Calm - N/A   Clear
7:55 AM 37.4 °F - 35.6 °F 93% 30.25 in 10.0 mi Calm Calm - N/A   Clear
8:15 AM 41.0 °F - 37.4 °F 87% 30.26 in 10.0 mi Calm Calm - N/A   Clear
8:35 AM 42.8 °F - 41.0 °F 93% 30.27 in 10.0 mi Calm Calm - N/A   Clear
8:55 AM 44.6 °F - 39.2 °F 81% 30.28 in 10.0 mi Calm Calm - N/A   Clear
9:15 AM 44.6 °F - 41.0 °F 87% 30.28 in 10.0 mi Calm Calm - N/A   Clear
9:35 AM 46.4 °F - 41.0 °F 81% 30.28 in 10.0 mi Calm Calm - N/A   Clear
9:55 AM 50.0 °F - 41.0 °F 71% 30.27 in 10.0 mi ENE 3.5 mph - N/A   Clear
10:15 AM 50.0 °F - 41.0 °F 71% 30.27 in 10.0 mi Calm Calm - N/A   Clear
10:35 AM 51.8 °F - 41.0 °F 67% 30.27 in 10.0 mi Calm Calm - N/A   Clear
10:55 AM 53.6 °F - 41.0 °F 62% 30.27 in 10.0 mi NE 4.6 mph - N/A   Clear
11:15 AM 55.4 °F - 41.0 °F 58% 30.26 in 10.0 mi NE 5.8 mph - N/A   Clear
11:35 AM 55.4 °F - 41.0 °F 58% 30.26 in 10.0 mi East 3.5 mph - N/A   Clear
11:55 AM 59.0 °F - 41.0 °F 51% 30.25 in 10.0 mi East 4.6 mph - N/A   Clear
12:15 PM 62.6 °F - 42.8 °F 48% 30.25 in 10.0 mi East 3.5 mph - N/A   Clear
12:35 PM 62.6 °F - 41.0 °F 45% 30.24 in 10.0 mi SSW 3.5 mph - N/A   Clear
12:55 PM 62.6 °F - 41.0 °F 45% 30.23 in 10.0 mi SE 3.5 mph - N/A   Clear
1:15 PM 62.6 °F - 42.8 °F 48% 30.22 in 10.0 mi South 5.8 mph - N/A   Clear
1:35 PM 64.4 °F - 42.8 °F 45% 30.21 in 10.0 mi SSE 4.6 mph - N/A   Clear
1:55 PM 66.2 °F - 44.6 °F 46% 30.20 in 10.0 mi SSE 6.9 mph - N/A   Clear
2:15 PM 68.0 °F - 42.8 °F 40% 30.18 in 10.0 mi South 5.8 mph - N/A   Clear
2:35 PM 68.0 °F - 42.8 °F 40% 30.17 in 10.0 mi SE 9.2 mph - N/A   Clear
2:55 PM 69.8 °F - 42.8 °F 38% 30.15 in 10.0 mi SSW 6.9 mph - N/A   Clear
3:15 PM 69.8 °F - 42.8 °F 38% 30.14 in 10.0 mi South 8.1 mph - N/A   Clear
3:35 PM 69.8 °F - 42.8 °F 38% 30.13 in 10.0 mi South 6.9 mph - N/A   Clear
3:55 PM 69.8 °F - 42.8 °F 38% 30.12 in 10.0 mi SSE 5.8 mph - N/A   Clear
4:15 PM 71.6 °F - 42.8 °F 35% 30.12 in 10.0 mi WSW 5.8 mph - N/A   Clear
4:35 PM 71.6 °F - 42.8 °F 35% 30.10 in 10.0 mi South 3.5 mph - N/A   Clear
4:55 PM 69.8 °F - 41.0 °F 35% 30.09 in 10.0 mi Calm Calm - N/A   Clear
5:15 PM 71.6 °F - 42.8 °F 35% 30.09 in 10.0 mi SSE 8.1 mph - N/A   Clear
5:35 PM 69.8 °F - 42.8 °F 38% 30.08 in 10.0 mi SSE 9.2 mph - N/A   Clear
5:55 PM 69.8 °F - 42.8 °F 38% 30.08 in 10.0 mi SSE 6.9 mph - N/A   Clear
6:15 PM 69.8 °F - 42.8 °F 38% 30.08 in 10.0 mi South 8.1 mph - N/A   Clear
6:35 PM 69.8 °F - 42.8 °F 38% 30.08 in 10.0 mi South 8.1 mph - N/A   Clear
6:55 PM 66.2 °F - 42.8 °F 43% 30.08 in 10.0 mi South 5.8 mph - N/A   Clear
7:15 PM 66.2 °F - 42.8 °F 43% 30.08 in 10.0 mi South 8.1 mph - N/A   Clear
7:35 PM 64.4 °F - 44.6 °F 49% 30.08 in 10.0 mi SSE 4.6 mph - N/A   Clear
7:55 PM 62.6 °F - 44.6 °F 52% 30.08 in 10.0 mi SSE 4.6 mph - N/A   Clear
8:15 PM 60.8 °F - 44.6 °F 55% 30.08 in 10.0 mi SSE 3.5 mph - N/A   Clear
8:35 PM 60.8 °F - 44.6 °F 55% 30.08 in 10.0 mi Calm Calm - N/A   Clear
8:55 PM 59.0 °F - 44.6 °F 59% 30.08 in 10.0 mi Calm Calm - N/A   Clear
9:15 PM 57.2 °F - 46.4 °F 67% 30.09 in 10.0 mi SE 3.5 mph - N/A   Clear
9:35 PM 55.4 °F - 46.4 °F 72% 30.08 in 10.0 mi Calm Calm - N/A   Clear
9:55 PM 53.6 °F - 44.6 °F 72% 30.09 in 10.0 mi Calm Calm - N/A   Clear
10:15 PM 51.8 °F - 44.6 °F 76% 30.10 in 10.0 mi Calm Calm - N/A   Clear
10:35 PM 50.0 °F - 44.6 °F 82% 30.10 in 10.0 mi Calm Calm - N/A   Clear
10:55 PM 50.0 °F - 44.6 °F 82% 30.10 in 10.0 mi Calm Calm - N/A   Clear
11:15 PM 50.0 °F - 44.6 °F 82% 30.09 in 10.0 mi South 3.5 mph - N/A   Clear
11:35 PM 50.0 °F - 44.6 °F 82% 30.08 in 10.0 mi SSE 4.6 mph - N/A   Clear
11:55 PM 51.8 °F - 44.6 °F 76% 30.08 in 10.0 mi SSE 6.9 mph - N/A   Clear